User: anonymous   Login
Location: Les Jeannots
(43.2262°N, 5.5774°E)
Time: 12:11:30
(UTC+00:00)
Language:

Cosmos 2074 Rocket - Orbit

View from above orbital plane
View from above orbital plane
View from above satellite
View from above satellite

Ground track
Ground track

The orbit data is extracted from the following two-line orbital elements,

1 20578U 90036B   20274.27316458  .00000033  00000-0  18331-4 0  9997
2 20578  82.9472 188.2180 0011784 213.6665 256.4967 13.76388805529187
Epoch (UTC): 30 September 2020 06:33:21
Eccentricity: 0.0011784
inclination: 82.9472°
perigee height: 968 km
apogee height: 985 km
right ascension of ascending node: 188.2180°
argument of perigee: 213.6665°
revolutions per day: 13.76388805
mean anomaly at epoch: 256.4967°
orbit number at epoch: 52918

The dashed part of the orbit path shows where the satellite is in the earth's shadow,  

DLR